www.pogodaiklimat.ru

Погода и климат >> Архив погоды >> Австрия >> Вайтенсфельд-им-Гуркталь


ПОГОДА в Вайтенсфельд-им-Гурктале

  • Прогноз погоды в Вайтенсфельд-им-Гурктале
  • Монитор погоды в Вайтенсфельд-им-Гурктале

АРХИВ ПОГОДЫ в Вайтенсфельд-им-Гурктале

Время (UTC), дата Ветер
(напр.,м/с)
 
Видим.   Явления Облачность Т
(С)
Тd
(С)
f
(%)
Тe
(С)
Тes
(С)
Комфортность P
(гПа)
Po
(гПа)
Тmin
(С)
Tmax
(С)
R
(мм)
R24
(мм)
S
(см)
04 12.07 СЗ 1 н/о н/о +12.4 +11.1 92 +12 +12 1014.5 932.7
05 12.07 штиль 0 н/о н/о +12.7 +11.2 91 +12 +12 1014.7 933.0
06 12.07 штиль 0 60 км 9/9 1500 м
[Sc]
+13.9 +11.4 85 +14 +14 1014.3 932.9 +12.3 +19.7 0.2
07 12.07 З 1 н/о н/о +15.0 +11.3 79 +16 +16 1014.2 933.1
08 12.07 штиль 0 н/о н/о +18.1 +11.0 63 +18 +18 1012.5 932.4
09 12.07 В 2 50 км 9/4 1500 м
[Cu hum Ac trans]
+19.1 +10.4 57 +21 +25 комфорт 1012.2 932.3
10 12.07 ЮЗ 3 н/о н/о +20.9 +10.8 52 +23 +23 комфорт 1011.4 932.1
11 12.07 В 1 н/о н/о +21.2 +10.6 51 +23 +23 комфорт 1011.1 931.9
12 12.07 ЮЗ 2 н/о н/о +22.3 +10.7 48 +24 +24 комфорт 1010.1 931.2
13 12.07 В 3 н/о н/о +22.4 +10.7 47 +24 +24 комфорт 1009.5 930.7
14 12.07 Ю 1 н/о н/о +22.6 +12.0 51 +25 +25 комфорт 1008.9 930.2
15 12.07 З 2 н/о н/о +24.0 +10.9 44 +25 +25 комфорт 1008.0 929.7
16 12.07 Ю 1 н/о н/о +22.3 +11.1 49 +24 +24 комфорт 1008.2 929.5
17 12.07 СЗ 1 н/о осадки н/о +15.9 +13.3 85 +17 +17 1010.6 930.1 1
18 12.07 штиль 0 н/о {осадки} н/о +15.6 +13.5 87 +15 +15 1011.4 930.8 +13.7 +24.3 1
19 12.07 З 1 н/о н/о +14.7 +13.0 90 +15 +15 1012.5 931.5 0.0
20 12.07 З 1 н/о н/о +13.6 +12.4 92 +14 +14 1013.7 932.3
21 12.07 СЗ 1 н/о н/о +13.0 +12.1 94 +13 +13 1014.1 932.5 0.0
22 12.07 З 2 н/о н/о +13.0 +12.1 94 +12 +12 1014.0 932.4
23 12.07 З 1 н/о н/о +12.7 +11.9 95 +13 +13 1013.6 932.0
00 13.07 В 2 н/о осадки н/о +13.4 +12.2 92 +13 +13 1013.4 932.0 0.6
01 13.07 С 1 н/о в посл. час осадки н/о +12.3 +11.1 92 +12 +12 1013.3 931.6 0.4
02 13.07 СВ 1 н/о н/о +11.8 +10.8 94 +12 +12 1013.3 931.4
03 13.07 З 1 н/о {осадки} н/о +11.2 +10.3 94 +11 +11 1013.0 931.0 0.4
04 13.07 штиль 0 н/о н/о +10.9 +10.1 95 +10 +10 1013.1 931.0
05 13.07 З 1 н/о н/о +11.4 +10.4 94 +11 +11 1013.1 931.1
06 13.07 З 1 5000 м дымка {ливн. осадки} 10/6 100 м
[Cu hum Ac trans]
+11.8 +10.7 93 +12 +12 1013.2 931.3 +10.5 +15.9 1
07 13.07 ЮЗ 1 н/о н/о +12.9 +10.7 86 +13 +13 1012.5 931.0
08 13.07 ЮВ 2 н/о н/о +15.0 +11.5 80 +15 +15 1012.0 931.1
09 13.07 Ю 1 40 км 9/4 1500 м
[Cu hum Ac As]
+19.0 +11.3 61 +21 +25 комфорт 1010.5 930.8
10 13.07 З 4 н/о н/о +19.4 +6.2 42 +20 +20 1011.0 931.2
11 13.07 З 6 н/о н/о +19.9 +5.5 39 +20 +20 1010.8 931.2
12 13.07 СЗ 1 н/о н/о +18.7 +3.9 37 +20 +20 1011.7 931.6 0.0
14 13.07 З 5 н/о н/о +21.9 +7.9 41 +23 +23 комфорт 1009.9 930.9
15 13.07 З 6 н/о н/о +19.9 +6.4 41 +20 +20 1011.0 931.4
17 13.07 З 6 н/о н/о +18.9 +6.1 43 +19 +19 1011.4 931.5
18 13.07 З 7 н/о н/о +18.1 +5.9 45 +17 +17 1012.2 932.0 +11.8 +21.9 0.0
19 13.07 З 3 н/о н/о +16.7 +5.7 48 +17 +17 1012.9 932.3
20 13.07 З 2 н/о н/о +13.1 +7.2 67 +12 +12 1014.7 933.0
21 13.07 В 1 н/о н/о +13.6 +7.2 65 +14 +14 1014.9 933.3
22 13.07 З 1 н/о н/о +12.6 +8.8 78 +13 +13 1015.5 933.6
23 13.07 З 1 н/о н/о +12.5 +7.9 74 +13 +13 1015.3 933.4
00 14.07 З 1 н/о н/о +11.1 +7.6 79 +11 +11 1015.3 933.0
01 14.07 З 1 н/о н/о +8.9 +6.7 86 +8 +8 1015.9 932.9
02 14.07 З 1 н/о н/о +7.8 +6.3 90 +7 +7 1015.9 932.6
03 14.07 З 1 н/о н/о +7.0 +5.8 92 +6 +6 1016.2 932.6
04 14.07 З 1 н/о н/о +6.3 +5.3 93 +5 +5 1016.5 932.7
05 14.07 СЗ 1 н/о н/о +9.1 +7.0 87 +8 +8 1015.6 932.7
06 14.07 З 1 65 км 5/5 2000 м
[Cu hum]
+11.9 +8.0 77 +12 +14 1014.6 932.6 +6.2 +18.1
07 14.07 штиль 0 н/о н/о +15.7 +8.4 62 +16 +16 1013.3 932.4
08 14.07 В 2 н/о н/о +19.9 +7.2 44 +21 +21 комфорт 1012.1 932.4
09 14.07 В 2 65 км 8/8 2000 м
[Cu Sc]
+20.6 +7.6 43 +22 +25 комфорт 1011.8 932.3
10 14.07 ЮЗ 1 н/о н/о +19.9 +6.9 43 +22 +22 комфорт 1011.9 932.2
11 14.07 Ю 1 н/о в посл. час осадки н/о +19.1 +11.7 62 +21 +21 комфорт 1012.3 932.5 2
12 14.07 СВ 2 н/о осадки н/о +16.4 +14.2 87 +16 +16 1013.1 932.6 5
13 14.07 В 2 н/о н/о +17.0 +12.7 76 +17 +17 1013.3 932.9 0.0
14 14.07 ЮВ 2 н/о осадки н/о +17.5 +12.5 72 +18 +18 1013.2 932.9 0.1
15 14.07 З 1 н/о {осадки} н/о +19.1 +11.8 63 +21 +21 комфорт 1012.2 932.4 0.1
16 14.07 ЮЗ 1 н/о в посл. час осадки н/о +19.6 +12.3 63 +22 +22 комфорт 1011.7 932.1 0.1
17 14.07 С 1 н/о н/о +17.7 +12.0 69 +19 +19 1012.3 932.1
18 14.07 штиль 0 н/о {ливн. осадки} н/о +16.6 +12.9 79 +17 +17 1012.6 932.1 +11.5 +21.3 5
19 14.07 В 1 н/о н/о +15.8 +13.0 83 +16 +16 1013.2 932.5
20 14.07 З 1 н/о н/о +13.9 +12.0 88 +14 +14 1014.5 933.1
21 14.07 З 1 н/о н/о +12.9 +11.3 90 +13 +13 1014.7 933.0
22 14.07 З 1 н/о н/о +10.6 +9.4 92 +10 +10 1015.7 933.3
23 14.07 ЮЗ 1 н/о н/о +9.9 +9.0 94 +9 +9 1016.1 933.4
00 15.07 З 1 н/о н/о +8.8 +7.9 94 +8 +8 1016.2 933.2
01 15.07 З 1 н/о н/о +8.2 +7.5 95 +7 +7 1016.4 933.2
02 15.07 штиль 0 н/о н/о +8.3 +7.4 94 +7 +7 1016.1 932.9
03 15.07 З 1 н/о н/о +8.4 +7.6 95 +8 +8 1016.0 932.9
04 15.07 З 1 н/о н/о +8.7 +7.8 94 +8 +8 1016.2 933.2
05 15.07 З 1 н/о н/о +9.6 +8.3 92 +9 +9 1016.0 933.2
06 15.07 СЗ 1 60 км 8/1 2000 м
[Cu hum Ac As Ci sp]
+10.7 +9.0 89 +10 +13 1015.3 932.9 +8.0 +16.7
07 15.07 штиль 0 н/о н/о +13.6 +10.2 80 +13 +13 1014.0 932.5
08 15.07 ЮВ 2 н/о н/о +18.1 +7.6 50 +19 +19 1012.4 932.2
09 15.07 В 3 50 км 6/5 1500 м
[Cu Sc Ci fib]
+20.0 +7.7 45 +21 +27 комфорт 1012.0 932.3
10 15.07 Ю 2 н/о н/о +19.2 +11.2 60 +21 +21 комфорт 1012.2 932.4
11 15.07 В 2 н/о н/о +20.6 +9.3 48 +23 +23 комфорт 1011.6 932.2
12 15.07 ЮВ 1 н/о н/о +20.6 +9.2 48 +23 +23 комфорт 1011.5 932.1
13 15.07 ЮВ 2 н/о н/о +20.4 +9.0 48 +22 +22 комфорт 1011.6 932.1
14 15.07 ЮВ 2 н/о н/о +21.0 +9.6 48 +23 +23 комфорт 1011.5 932.2
15 15.07 ЮВ 2 н/о н/о +21.7 +8.9 44 +23 +23 комфорт 1011.1 932.0
16 15.07 Ю 1 н/о н/о +20.3 +10.3 53 +23 +23 комфорт 1011.6 932.1
17 15.07 СВ 1 н/о в посл. час осадки н/о +16.1 +13.9 87 +17 +17 1013.2 932.6 2
18 15.07 штиль 0 н/о {осадки} н/о +16.1 +13.9 87 +16 +16 1013.6 932.9 +10.4 +21.8 2
19 15.07 штиль 0 н/о н/о +14.0 +12.3 89 +14 +14 1014.6 933.3
20 15.07 штиль 0 н/о н/о +13.8 +12.5 92 +13 +13 1015.5 934.0 0.0
21 15.07 ЮЗ 1 н/о н/о +12.3 +11.0 92 +12 +12 1016.4 934.4 0.0
22 15.07 штиль 0 н/о н/о +10.9 +9.9 94 +10 +10 1017.2 934.7
23 15.07 З 1 н/о н/о +9.7 +8.8 94 +9 +9 1017.7 934.8
00 16.07 штиль 0 н/о н/о +8.5 +7.7 95 +8 +8 1018.1 934.8 0.0
01 16.07 З 1 н/о н/о +7.6 +6.9 95 +7 +7 1018.3 934.8
02 16.07 СЗ 1 н/о н/о +7.6 +7.0 96 +7 +7 1018.2 934.7
03 16.07 З 1 н/о н/о +7.0 +6.4 96 +6 +6 1018.4 934.7
04 16.07 З 1 н/о н/о +6.4 +5.8 96 +5 +5 1018.5 934.6
05 16.07 З 1 400 м туман ?/? +7.9 +7.5 97 +7 +7 1018.0 934.6
06 16.07 штиль 0 1000 м в посл. час туман 4/3 <50 м
[St Ci fib]
+10.0 +8.9 93 +9 +13 1017.4 934.6 +6.4 +16.1 0.0
07 16.07 З 1 н/о н/о +13.2 +9.5 78 +13 +13 1016.3 934.5
08 16.07 В 2 н/о н/о +18.3 +11.7 65 +19 +19 1014.2 934.0
09 16.07 ЮВ 3 60 км 8/8 2000 м
[Cu Sc]
+22.1 +9.0 43 +23 +26 комфорт 1012.5 933.4
10 16.07 З 3 н/о н/о +22.1 +8.5 42 +23 +23 комфорт 1012.3 933.2
11 16.07 Ю 1 н/о н/о +23.0 +8.3 39 +24 +24 комфорт 1012.1 933.2
12 16.07 Ю 2 н/о н/о +22.2 +10.2 46 +24 +24 комфорт 1012.0 933.0
13 16.07 ЮВ 2 н/о н/о +23.8 +10.8 44 +25 +25 комфорт 1011.2 932.6
14 16.07 Ю 1 н/о н/о +23.0 +10.3 45 +25 +25 комфорт 1011.4 932.6
15 16.07 СВ 1 н/о н/о +24.6 +7.7 34 +25 +25 комфорт 1010.5 932.1
16 16.07 Ю 1 н/о н/о +24.2 +9.7 40 +25 +25 комфорт 1010.3 931.9
17 16.07 ЮЗ 1 н/о н/о +23.2 +10.1 43 +25 +25 комфорт 1010.6 931.9
18 16.07 штиль 0 н/о н/о +22.8 +11.0 47 +25 +25 комфорт 1010.8 932.0 +9.6 +25.3
19 16.07 штиль 0 н/о н/о +17.6 +11.7 68 +18 +18 1012.9 932.6
20 16.07 З 1 н/о н/о +13.9 +10.6 80 +14 +14 1015.1 933.6
21 16.07 З 1 н/о н/о +12.0 +9.5 85 +12 +12 1016.1 934.0
22 16.07 З 1 н/о н/о +10.5 +8.6 88 +10 +10 1016.9 934.3
23 16.07 З 1 н/о н/о +9.4 +7.6 89 +9 +9 1017.5 934.5
00 17.07 З 1 н/о н/о +8.3 +7.0 92 +7 +7 1018.1 934.8
01 17.07 З 1 н/о н/о +7.8 +6.7 93 +7 +7 1018.3 934.8
02 17.07 З 2 н/о н/о +6.9 +5.9 93 +5 +5 1018.4 934.6
03 17.07 З 1 н/о н/о +6.4 +5.5 94 +5 +5 1018.4 934.5
04 17.07 З 1 н/о н/о +6.1 +5.3 95 +5 +5 1018.8 934.8
05 17.07 З 1 >70 км 1/0
[Ci fib]
+7.6 +6.6 93 +7 +8 1018.4 934.8
06 17.07 З 1 65 км 3/0
[Ci fib]
+10.8 +7.9 82 +11 +15 1016.8 934.3 +5.9 +22.6
07 17.07 З 1 н/о н/о +14.7 +9.0 69 +15 +15 1015.1 933.8
08 17.07 В 2 н/о н/о +20.2 +9.7 51 +22 +22 комфорт 1012.7 933.1
09 17.07 В 2 65 км 9/0
[Cs]
+23.0 +10.4 45 +25 +37 комфорт 1011.2 932.4
10 17.07 В 2 н/о н/о +23.7 +9.3 40 +25 +25 комфорт 1010.5 931.9
11 17.07 штиль 0 н/о н/о +25.2 +9.3 37 +26 +26 жарко 1009.5 931.4
12 17.07 В 3 н/о н/о +25.8 +11.8 42 +27 +27 жарко 1008.9 931.0
13 17.07 ЮВ 2 н/о н/о +26.3 +11.1 39 +27 +27 жарко 1008.4 930.7
14 17.07 ЮВ 2 н/о н/о +26.6 +11.9 40 +28 +28 жарко 1007.8 930.2
15 17.07 Ю 1 н/о н/о +25.7 +10.7 39 +27 +27 жарко 1007.6 929.8
16 17.07 ЮВ 3 н/о н/о +23.8 +13.9 54 +26 +26 жарко 1007.7 929.5 0.0
17 17.07 В 1 н/о н/о +20.8 +16.3 75 +25 +25 комфорт 1008.4 929.5
18 17.07 СВ 3 н/о осадки н/о +16.9 +14.9 88 +17 +17 1011.0 930.8 +10.3 +27.4 4
19 17.07 В 1 н/о ливневой дождь н/о +16.0 +14.7 92 +17 +17 1013.7 933.0 2
20 17.07 В 1 н/о осадки н/о +15.5 +14.6 94 +16 +16 1014.6 933.7 3
21 17.07 С 1 н/о осадки {ливн. осадки} н/о +15.2 +14.3 94 +16 +16 1015.0 934.0 9
22 17.07 В 2 н/о осадки н/о +15.1 +14.1 94 +15 +15 1015.4 934.3 4
23 17.07 В 1 н/о осадки н/о +14.7 +13.8 94 +15 +15 1014.8 933.7 2
00 18.07 штиль 0 н/о в посл. час осадки {ливн. осадки} н/о +14.1 +13.3 95 +14 +14 1014.8 933.5 15
01 18.07 СВ 1 н/о н/о +14.2 +13.5 96 +14 +14 1014.1 932.9
02 18.07 В 2 н/о н/о +13.8 +13.0 95 +13 +13 1013.9 932.6
03 18.07 В 1 н/о н/о +13.9 +13.0 94 +14 +14 1013.9 932.6
04 18.07 В 1 н/о н/о +13.7 +12.7 94 +14 +14 1014.3 932.9
05 18.07 В 2 2000 м дымка 10/10 50 м
[St]
+13.9 +12.9 94 +13 +13 1014.2 932.9
06 18.07 800 м дымка н/о +14.3 +13.1 92 +14 +16 1014.3 933.1 +13.5 +16.9 15
07 18.07 штиль 0 н/о н/о +15.1 +13.3 89 +15 +15 1014.2 933.2
08 18.07 В 1 н/о н/о +16.9 +13.3 79 +18 +18 1013.6 933.1
09 18.07 В 1 10 км 9/9 300 м
[Cu hum]
+18.9 +12.8 68 +21 +23 комфорт 1012.8 932.9
10 18.07 В 1 н/о н/о +20.8 +13.7 64 +25 +25 комфорт 1012.0 932.7
11 18.07 З 1 н/о н/о +22.0 +15.3 66 +26 +26 душно 1011.4 932.5
12 18.07 З 2 н/о в посл. час осадки н/о +21.1 +15.7 71 +24 +24 комфорт 1011.5 932.4 0.0
13 18.07 З 2 н/о н/о +20.2 +15.1 72 +23 +23 комфорт 1011.6 932.2 0.0
14 18.07 штиль 0 н/о н/о +22.4 +10.6 47 +24 +24 комфорт 1010.8 931.9
15 18.07 З 2 н/о н/о +21.9 +12.6 56 +24 +24 комфорт 1010.8 931.8 0.0
16 18.07 ЮЗ 1 н/о н/о +20.7 +14.1 66 +24 +24 комфорт 1011.0 931.8
17 18.07 З 4 н/о н/о +17.9 +13.2 74 +18 +18 1013.1 932.9 0.0
18 18.07 З 1 н/о в посл. час осадки н/о +16.9 +14.2 84 +18 +18 1013.6 933.2 +14.2 +23.0 0.2
19 18.07 СЗ 1 н/о н/о +16.4 +13.6 84 +17 +17 1014.7 934.0
20 18.07 СЗ 1 н/о н/о +14.9 +13.2 90 +15 +15 1016.1 934.9
21 18.07 ЮЗ 1 н/о н/о +13.2 +11.9 92 +13 +13 1017.2 935.4
22 18.07 З 1 н/о н/о +12.9 +11.9 94 +13 +13 1017.5 935.6
23 18.07 штиль 0 н/о н/о +12.8 +11.8 94 +12 +12 1017.7 935.8
00 19.07 штиль 0 н/о н/о +12.4 +11.4 94 +12 +12 1018.1 936.0
01 19.07 СЗ 1 н/о н/о +12.4 +11.4 94 +12 +12 1018.3 936.2
02 19.07 З 1 н/о н/о +12.5 +11.7 95 +12 +12 1018.0 936.0
03 19.07 СЗ 1 н/о н/о +12.2 +11.3 94 +12 +12 1018.4 936.2
05 19.07 СЗ 1 н/о н/о +11.7 +11.1 96 +11 +11 1018.8 936.5

 

Местоположение метеостанции Вайтенсфельд-им-Гуркталь (Австрия): широта 46.85 долгота 14.20 высота над уровнем моря 705 м.

В архиве по умолчанию представлена погода в Вайтенсфельд-им-Гурктале за последнюю неделю. Архивные данные за месяц целиком и за предыдущие месяцы, начиная с января 2011 года, Вы можете получить, выбрав интересующий диапазон дат из раскрывающегося списка и нажав кнопку "Ввод!".


*Определитесь, кто Вы:
робот инопланетянин человек

Внимание! Время в таблицах - всемирное. Для получения местного времени необходимо прибавить поправку, которая равна 1 ч.

Смотрите также архив погоды в соседних городах и на ближайших метеорологических станциях:

Погода в Фельдкирхене (Австрия) (16 км)
Погода в Клагенфурте (Австрия) (24 км)
Погода в Пёрчах-ам-Вёртерзе (Австрия) (25 км)
Погода в Клагенфурте (Австрия) (26 км)
Погода в Ноймаркте (Австрия) (30 км)
Погода в Арриахе (Австрия) (30 км)
Погода в Мурау (Австрия) (30 км)
Погода в Филлахе (Австрия) (35 км)
Погода в Марифапфаре (Австрия) (48 км)
Погода в Санкт-Андре (Австрия) (49 км)

Пояснения к столбцам:

Ветер - указаны скорость ветра в м/с - средняя за 10 мин, порывы в срок и между сроками (в фигурных скобках) и направление, откуда дует ветер: С - северный, СВ - северо-восточный, В - восточный, ЮВ - юго-восточный, Ю - южный, ЮЗ - юго-западный, З - западный, СЗ - северо-западный.
Видимость - горизонтальная дальность видимости в метрах или километрах. При видимости от 1 до 10 км при отсутствии осадков обычно наблюдается дымка, при ухудшении видимости до 1 км и менее - туман. В сухую погоду видимость может ухудшаться дымом, пылью или мглою.
Явления - указаны атмосферные явления, наблюдавшиеся в срок или в последний час перед сроком; фигурными скобками обозначены явления, наблюдавшиеся между сроками (за 1-3 часа до срока); квадратными скобками обозначены град или гололедные отложения с указанием их диаметра в мм.
Облачность - указаны через наклонную черту общая и нижняя облачность в баллах и высота нижней границы облаков в метрах; квадратными скобками обозначены формы облаков: Ci - перистые, Cs - перисто-слоистые, Cc - перисто-кучевые, Ac - высококучевые, As - высокослоистые, Sc - слоисто-кучевые, Ns - слоисто-дождевые, Cu - кучевые, Cb - кучево-дождевые. Подробнее классификацию облаков см. в Атласе облаков (PDF).
T - Температура воздуха - температура, измеренная на высоте 2 м над землей.
Td - Температура точки росы - температура, при понижении до которой содержащийся в воздухе водяной пар достигнет насыщения.
f - Относительная влажность воздуха - влажноcть воздуха, измеренная на высоте 2 м над землей.
Te - Эффективная температура - температура, которую ощущает одетый по сезону человек в тени. Характеристика душности погоды. При расчете учитывается влияние влажности воздуха и скорости ветра на теплоощущения человека.
Tes - Эффективная температура на солнце - температура, которую ощущает человек, с поправкой на солнечный нагрев. Характеристика знойности погоды. Зависит от высоты солнца над горизонтом, облачности и скорости ветра. Ночью, в пасмурную погоду, а также при ветре 12 м/с и более поправка равна нулю.
P - Атмосферное давление - приведенное к уровню моря атмосферное давление.
Po - Атмосферное давление - измеренное на уровне метеостанции атмосферное давление.
Tmin - Минимальная температура - минимум температуры воздуха на высоте 2 м над землей.
Tmax - Максимальная температура - максимум температуры воздуха на высоте 2 м над землей.
R - Количество осадков - Количество выпавших осадков за период времени, мм. При наведении курсора мыши на число - период времени, за который выпало указанное количество осадков.
R24 - Количество осадков - Количество выпавших осадков за 24 часа, мм.
S - Снежный покров - Высота снежного покрова, см. При наведении курсора мыши на число - состояние снежного покрова и степень покрытия местности в баллах.